Location: Baumgartsau
(48.4586°N, 14.0864°E)
Time: 11:42:52
(UTC+00:00)

BREEZE M DEB (TANK) - Pass Details

Date: 12 August 2020
Orbit: 304 x 11869 km, 49.5° (Epoch: 20 September)

Event Time Altitude Azimuth Distance (km) Brightness Sun altitude
Exits shadow 01:28:23 21° 208° (SSW) 9,044 7.8 -19.5°
Maximum altitude 01:50:07 53° 149° (SSE) 3,201 6.0 -17.2°
Drops below altitude 10° 01:58:42 10° 75° (ENE) 3,383 7.2 -16.3°
Sets 02:00:31 0° 69° (ENE) 3,895 7.8 -16.1°
